Wind_Speed
9 9 8 8 7 5 4 3 1 5 8 11 13 15 20 15 10 6 4 4 3 4 4 3 3 5 7 5 4 6 7 8 11 9 8 9 6 6 6 4 9 10 8 14 18
12 11 11 10 9 8 5 3 2 1 7 10 13 16 20 18 14 8 5 5 3 3 3 3 2 3 9 11 2 2 5 10 6 4 5 6 3 8 4 2 7 8 9 15 18
14 13 12 12 11 10 8 5 3 1 4 10 12 15 18 19 14 10 7 8 8 7 6 2 5 4 4 3 6 2 6 9 5 1 5 5 5 6 3 3 6 5 12 14 21
16 15 14 14 13 12 10 9 5 3 2 7 11 15 18 20 14 12 10 9 8 6 4 5 4 4 2 10 7 3 3 7 7 3 5 4 6 8 7 8 9 11 12 17 19
16 17 17 16 15 14 13 11 9 6 4 4 11 15 18 22 16 15 12 10 8 6 9 9 4 7 5 8 9 8 4 9 5 7 3 5 6 7 14 10 11 11 14 14 14
17 18 18 18 16 15 14 13 11 9 7 5 9 15 19 24 21 16 14 11 8 8 8 7 5 2 3 3 7 9 12 12 8 10 6 2 2 3 10 10 10 10 12 13 11
15 17 18 18 18 16 16 14 12 11 10 8 7 14 18 25 25 18 16 14 9 6 4 2 4 3 11 11 13 10 10 7 11 16 7 2 4 2 7 8 6 9 8 7 8
14 15 15 16 17 16 17 14 12 12 12 11 10 11 19 28 28 21 19 17 13 9 6 7 3 3 18 4 6 12 13 18 19 20 9 8 5 3 3 7 6 4 3 4 4
13 13 12 13 15 16 16 14 13 13 13 12 11 12 20 29 31 24 21 19 15 13 11 8 6 5 5 10 15 6 8 13 19 21 11 9 3 5 4 7 6 7 7 6 4
13 12 11 10 11 15 14 13 14 13 13 13 13 11 14 26 33 28 24 21 19 15 14 12 8 8 5 9 1 7 17 14 17 17 16 17 12 7 13 9 5 8 5 3 6
12 11 10 8 9 12 12 13 14 15 14 15 10 18 14 24 32 34 27 24 22 19 15 13 13 8 2 8 9 6 13 19 18 14 17 20 12 14 12 13 7 2 6 2 3
12 10 10 7 8 9 11 12 12 12 12 15 17 14 15 24 32 36 33 30 25 21 20 17 17 7 7 10 14 1 10 20 18 21 16 20 18 11 14 14 12 18 19 7 4
11 10 9 6 6 6 8 10 9 9 11 12 16 19 17 22 32 37 38 34 26 24 23 23 10 2 10 13 14 11 15 13 16 17 20 19 21 20 19 18 17 20 24 22 7
11 9 8 5 5 5 5 6 6 6 5 4 17 19 23 21 30 36 36 33 29 24 20 20 20 18 15 11 8 12 6 11 8 7 7 10 10 21 19 20 19 19 13 14 14
10 9 9 5 4 5 7 6 7 5 1 2 9 15 28 23 14 34 36 35 32 25 23 23 9 14 14 9 9 16 12 10 12 11 12 12 7 17 13 18 17 14 8 9 5
9 9 9 7 6 8 7 6 8 4 2 3 6 13 27 28 12 25 36 34 33 27 19 22 18 6 7 18 10 11 11 8 7 7 7 18 13 15 21 14 15 13 13 13 14
8 8 9 7 6 8 9 8 7 4 3 5 5 7 18 31 19 22 33 35 36 33 28 22 16 13 12 12 10 12 10 1 3 1 7 5 14 29 12 20 9 13 10 13 9
6 7 8 8 8 9 11 14 3 3 4 1 9 11 14 25 22 20 29 30 32 29 28 28 13 19 16 15 15 18 17 6 4 2 4 6 10 16 14 17 13 13 11 10 11
5 5 7 8 9 9 14 11 3 4 3 3 7 13 13 20 20 21 21 26 27 27 25 25 25 15 18 13 21 17 16 15 1 5 4 7 13 14 11 17 20 19 15 12 13
6 4 5 7 10 11 15 11 8 6 5 4 4 8 15 15 17 20 23 19 25 28 24 13 14 20 21 21 22 22 13 9 6 2 5 7 12 16 16 24 26 19 15 14 14
10 8 9 6 9 12 16 16 13 9 5 4 5 6 14 15 14 11 18 11 22 28 29 27 16 12 15 21 21 21 17 11 10 5 4 2 9 12 16 24 22 20 17 16 16
13 14 13 12 10 13 15 17 17 16 9 6 7 10 10 13 14 13 16 14 10 25 25 29 19 22 21 17 22 24 21 17 13 8 7 4 7 7 11 19 23 25 17 16 17
13 16 16 15 12 14 14 16 17 17 15 12 11 11 10 12 9 12 15 15 11 10 17 26 29 23 21 27 23 24 27 23 23 16 12 3 3 1 12 24 26 19 16 16 19
12 12 18 20 19 17 17 17 16 15 16 15 15 14 13 13 12 11 12 13 11 8 12 16 19 29 27 28 27 28 35 32 22 20 20 22 11 9 8 22 22 21 18 18 18
12 15 17 13 22 22 20 15 18 18 16 15 16 15 16 14 15 16 14 14 13 7 7 10 14 23 35 31 24 19 21 29 32 25 24 25 19 10 7 24 22 20 21 21 22
14 15 17 20 20 20 20 21 19 17 18 18 16 15 15 14 16 14 20 19 19 14 12 7 8 12 22 30 36 35 31 29 27 28 27 28 22 11 11 28 25 25 24 22 20
15 17 18 20 22 22 23 22 22 19 20 20 20 20 19 17 14 16 18 18 15 17 16 11 9 7 11 19 29 31 41 39 34 31 27 26 10 8 15 26 29 26 27 24 21
Wind_Direction
298 299 303 307 315 328 347 348 304 210 201 203 204 197 195 190 184 178 144 147 153 112 128 156 152 71 21 20 88 50 78 173 169 156 138 163 165 81 60 10 72 90 110 107 85
291 291 292 293 294 299 310 329 338 230 204 204 202 198 196 191 178 185 147 124 127 129 131 76 37 348 22 69 131 22 92 144 165 122 45 130 179 22 344 36 85 51 132 106 77
288 285 283 282 282 281 284 290 306 325 210 204 201 198 196 189 184 183 157 133 114 109 104 83 35 358 338 20 8 130 121 163 170 204 18 83 108 19 356 62 82 59 120 92 71
288 287 281 276 273 272 269 271 271 275 237 206 201 197 195 186 193 191 167 153 121 112 90 24 297 80 324 254 287 152 184 209 183 177 33 67 59 37 21 110 115 114 96 76 68
285 282 280 277 272 269 266 256 255 247 248 207 201 197 194 188 191 191 176 161 135 101 103 52 62 181 248 240 244 209 208 204 206 198 108 95 50 61 48 97 116 80 74 67 59
292 287 280 274 270 267 262 257 247 241 235 220 201 199 195 187 194 189 178 166 153 130 103 73 52 133 169 158 170 163 178 193 197 194 167 341 35 62 42 78 99 82 75 60 48
294 294 288 277 268 264 260 255 248 241 234 222 208 200 197 186 195 190 184 178 180 156 163 285 358 151 142 131 141 145 158 179 209 184 167 192 198 123 14 56 68 69 60 50 36
291 291 289 282 270 261 258 251 245 237 232 223 212 201 195 192 193 193 188 192 187 186 199 228 247 148 173 156 166 196 179 159 185 194 197 204 254 174 320 12 359 27 19 41 10
295 293 292 282 268 260 257 250 243 233 227 223 213 207 198 194 192 196 193 199 198 197 203 203 208 219 142 155 115 81 148 194 174 194 215 229 251 227 294 258 284 287 312 337 326
305 299 297 288 266 252 253 249 243 236 226 222 213 208 197 197 192 195 197 202 204 202 210 216 226 235 229 177 163 257 213 216 199 210 227 222 239 242 237 237 293 298 269 312 322
306 305 300 297 267 251 249 246 243 239 229 220 211 211 200 198 194 198 199 207 211 203 210 214 236 223 248 198 232 310 215 222 198 216 229 219 248 240 234 241 200 313 18 115 244
299 304 302 300 263 248 246 244 247 253 243 228 215 205 202 198 191 198 199 208 216 207 206 215 237 236 274 262 255 249 227 207 221 216 223 226 241 231 238 252 256 257 268 327 232
291 296 298 298 272 250 247 248 249 256 255 228 218 204 203 205 198 196 202 212 219 213 207 227 240 242 252 259 260 264 259 271 244 231 236 230 234 236 253 253 255 264 257 270 253
283 282 284 282 265 243 239 240 236 244 261 233 213 202 201 196 204 199 200 208 212 217 208 232 237 256 269 288 198 309 303 261 240 215 228 232 264 255 251 248 249 261 266 269 271
279 269 263 259 237 220 216 222 210 191 27 205 187 185 195 195 207 204 203 202 209 209 209 221 240 255 251 233 262 304 279 273 255 241 259 248 253 268 248 240 223 227 216 248 244
278 261 253 245 221 206 201 201 178 176 251 135 168 186 193 198 202 202 202 207 216 219 220 221 236 238 221 206 268 279 251 242 261 264 268 250 222 269 242 234 201 200 225 235 242
282 258 245 235 217 208 199 175 161 205 145 120 160 198 202 196 197 196 200 208 211 213 216 214 209 220 234 261 264 253 226 54 344 296 233 278 224 245 253 223 219 211 209 233 214
281 262 240 224 212 202 191 171 172 153 131 133 189 187 202 201 189 191 202 206 211 215 211 216 213 232 240 264 262 250 236 200 206 224 284 226 241 248 229 208 216 197 208 209 200
277 258 226 214 208 202 185 181 151 171 62 113 154 179 191 201 206 199 207 212 216 210 204 217 234 237 237 246 250 241 222 221 277 292 299 237 263 256 220 194 177 193 196 193 175
247 233 220 208 203 199 193 186 172 176 147 115 140 169 177 185 194 205 205 219 221 217 211 204 189 207 219 230 237 234 243 191 199 206 270 272 272 244 207 180 170 178 188 193 181
231 230 224 215 210 203 204 205 198 206 178 151 132 140 170 176 188 188 201 217 214 216 216 222 219 218 216 224 221 217 208 201 184 217 210 286 293 313 216 196 192 170 175 179 180
232 230 233 229 221 217 211 212 215 218 218 201 176 161 160 163 171 166 181 194 203 213 215 219 229 234 222 221 221 235 229 234 210 215 215 263 304 329 197 185 174 166 174 168 170
239 234 234 231 226 222 219 219 223 225 216 212 203 195 191 186 179 181 164 172 176 189 205 215 217 214 220 221 229 236 237 243 233 235 241 211 342 144 160 158 161 169 178 173 162
241 234 233 237 235 232 223 222 225 229 225 218 211 212 214 210 202 203 191 177 176 185 193 209 214 218 223 231 233 241 232 233 233 228 230 230 248 283 185 174 176 180 189 191 176
248 239 238 240 239 239 235 233 223 230 232 228 225 218 217 217 223 226 217 210 208 205 216 211 210 218 223 228 236 248 226 230 235 237 228 256 280 200 293 196 190 195 189 189 192
257 246 239 240 246 247 248 246 243 233 235 237 236 229 228 224 229 228 237 239 241 238 223 228 216 218 225 226 232 238 239 241 246 244 252 262 270 238 256 202 193 202 198 196 195
259 257 249 244 243 246 248 250 254 251 251 247 246 249 248 243 241 240 242 242 247 240 220 223 226 234 222 230 229 234 235 239 240 242 256 264 279 260 198 202 192 201 194 190 184
Height
3155 3155 3155 3155 3155 3155 3155 3155 3155 3156 3157 3158 3160 3162 3165 3168 3170 3171 3172 3173 3174 3176 3177 3177 3177 3178 3178 3176 3176 3176 3177 3177 3178 3179 3180 3181 3182 3184 3184 3185 3184 3184 3185 3186 3185
3153 3153 3153 3153 3153 3154 3154 3155 3155 3155 3156 3157 3158 3161 3163 3166 3169 3171 3173 3173 3175 3176 3178 3178 3178 3178 3178 3178 3178 3178 3178 3179 3181 3182 3183 3183 3184 3185 3186 3185 3185 3185 3187 3187 3186
3150 3151 3151 3151 3151 3151 3152 3153 3154 3154 3155 3155 3157 3159 3162 3165 3169 3171 3172 3174 3175 3176 3177 3177 3177 3178 3178 3178 3178 3179 3180 3180 3182 3184 3184 3184 3185 3186 3186 3186 3186 3187 3187 3188 3187
3147 3147 3148 3148 3149 3149 3150 3151 3152 3153 3154 3154 3156 3158 3160 3165 3170 3170 3172 3174 3174 3176 3177 3177 3176 3177 3178 3178 3178 3181 3181 3182 3182 3184 3185 3186 3187 3186 3185 3186 3187 3188 3189 3188 3188
3144 3144 3144 3144 3145 3146 3146 3148 3150 3151 3152 3153 3154 3157 3159 3163 3167 3169 3171 3173 3175 3175 3176 3176 3175 3178 3178 3178 3178 3180 3182 3182 3183 3185 3187 3188 3188 3187 3186 3186 3187 3188 3189 3189 3189
3141 3140 3140 3140 3141 3142 3143 3145 3147 3149 3150 3152 3153 3155 3158 3162 3165 3168 3170 3173 3174 3175 3176 3177 3179 3180 3178 3177 3179 3180 3181 3183 3184 3186 3187 3188 3188 3187 3188 3188 3188 3189 3190 3190 3190
3138 3136 3136 3136 3136 3137 3138 3141 3143 3146 3147 3149 3151 3153 3156 3162 3162 3166 3170 3172 3173 3174 3176 3178 3179 3180 3179 3180 3181 3182 3183 3185 3186 3187 3188 3188 3189 3188 3188 3190 3190 3190 3191 3192 3192
3135 3134 3133 3132 3132 3133 3134 3137 3140 3142 3144 3146 3148 3151 3154 3157 3161 3165 3168 3170 3171 3173 3176 3177 3178 3180 3180 3181 3181 3182 3184 3185 3186 3187 3188 3190 3190 3189 3189 3189 3190 3191 3192 3192 3193
3133 3132 3130 3129 3129 3129 3130 3133 3136 3138 3141 3143 3146 3148 3151 3154 3160 3163 3168 3170 3171 3173 3175 3177 3178 3179 3181 3182 3182 3183 3185 3185 3186 3186 3188 3189 3189 3190 3191 3190 3190 3190 3191 3192 3194
3130 3129 3128 3127 3126 3126 3128 3130 3132 3135 3138 3140 3143 3148 3148 3151 3157 3161 3165 3168 3170 3172 3174 3176 3178 3179 3179 3181 3181 3183 3184 3186 3185 3186 3187 3187 3187 3187 3189 3189 3189 3188 3189 3192 3194
3128 3127 3126 3125 3124 3124 3126 3127 3132 3134 3135 3138 3140 3141 3143 3147 3153 3158 3162 3164 3166 3170 3173 3175 3177 3178 3180 3180 3181 3182 3182 3184 3183 3183 3185 3185 3185 3184 3186 3187 3188 3188 3189 3191 3193
3126 3125 3124 3123 3122 3123 3123 3125 3127 3130 3132 3134 3136 3138 3140 3143 3148 3153 3158 3161 3163 3168 3170 3174 3173 3178 3178 3179 3180 3180 3180 3181 3180 3180 3183 3184 3183 3181 3182 3183 3186 3186 3187 3191 3193
3123 3122 3121 3121 3120 3122 3122 3123 3125 3126 3128 3129 3131 3135 3138 3141 3144 3148 3154 3158 3162 3165 3169 3171 3174 3176 3176 3177 3178 3179 3179 3178 3180 3180 3181 3182 3180 3180 3179 3181 3183 3183 3185 3187 3191
3120 3120 3119 3119 3121 3120 3121 3121 3122 3124 3125 3126 3126 3131 3134 3138 3142 3146 3151 3158 3160 3162 3169 3170 3172 3173 3175 3175 3176 3176 3175 3176 3178 3179 3180 3179 3175 3175 3175 3177 3178 3180 3182 3184 3187
3117 3117 3117 3117 3118 3119 3120 3120 3121 3124 3125 3125 3124 3126 3130 3136 3139 3141 3148 3153 3157 3160 3166 3168 3169 3170 3172 3174 3174 3174 3174 3174 3175 3176 3177 3175 3176 3169 3171 3172 3174 3177 3179 3182 3185
3115 3115 3115 3116 3116 3117 3118 3119 3121 3125 3122 3123 3123 3125 3128 3133 3136 3138 3144 3151 3156 3159 3162 3167 3167 3168 3169 3172 3173 3172 3172 3173 3173 3176 3175 3171 3174 3164 3165 3168 3171 3175 3177 3180 3182
3112 3112 3113 3114 3115 3116 3117 3119 3123 3121 3122 3123 3123 3124 3127 3130 3135 3137 3140 3144 3148 3154 3157 3162 3164 3165 3168 3170 3170 3170 3171 3173 3175 3176 3173 3168 3170 3159 3163 3165 3169 3172 3176 3179 3180
3110 3110 3111 3112 3113 3114 3116 3119 3119 3119 3119 3120 3120 3122 3125 3129 3133 3135 3139 3141 3145 3149 3155 3157 3161 3162 3165 3168 3169 3169 3170 3172 3177 3177 3171 3168 3162 3157 3157 3161 3166 3171 3174 3177 3179
3109 3108 3108 3110 3111 3113 3115 3117 3117 3118 3118 3118 3118 3121 3123 3127 3131 3134 3137 3140 3143 3147 3152 3154 3157 3161 3162 3164 3167 3165 3167 3170 3171 3173 3172 3163 3157 3155 3154 3158 3162 3167 3171 3175 3179
3107 3107 3107 3108 3109 3111 3114 3114 3115 3115 3116 3117 3118 3119 3121 3124 3128 3130 3135 3138 3141 3145 3149 3153 3155 3156 3158 3160 3161 3163 3164 3168 3170 3173 3171 3159 3155 3152 3152 3156 3160 3165 3169 3174 3178
3106 3106 3106 3107 3108 3109 3111 3112 3113 3114 3115 3116 3117 3118 3119 3122 3126 3128 3132 3135 3135 3139 3145 3150 3153 3154 3153 3154 3156 3158 3159 3162 3165 3167 3165 3164 3152 3148 3149 3154 3159 3164 3169 3173 3176
3102 3104 3104 3105 3108 3106 3108 3109 3111 3112 3113 3115 3116 3117 3119 3122 3124 3126 3128 3131 3133 3135 3140 3146 3149 3148 3150 3153 3153 3154 3155 3156 3157 3161 3161 3161 3153 3148 3148 3152 3160 3165 3170 3173 3176
3098 3100 3100 3102 3103 3104 3105 3106 3107 3110 3112 3113 3115 3117 3119 3121 3124 3125 3126 3129 3131 3133 3136 3140 3143 3145 3147 3149 3148 3150 3152 3153 3153 3155 3156 3159 3155 3152 3152 3155 3161 3166 3171 3174 3177
3097 3096 3097 3097 3099 3100 3102 3103 3104 3106 3109 3111 3112 3114 3116 3119 3121 3123 3126 3127 3129 3131 3133 3135 3137 3139 3139 3141 3145 3144 3146 3148 3151 3152 3151 3151 3155 3156 3157 3158 3161 3166 3171 3174 3177
3092 3092 3092 3092 3093 3095 3097 3099 3101 3102 3105 3106 3109 3111 3113 3115 3118 3120 3123 3126 3127 3129 3130 3132 3132 3133 3135 3139 3140 3141 3141 3143 3144 3145 3146 3147 3150 3152 3155 3157 3161 3166 3170 3173 3177
3088 3088 3089 3090 3090 3091 3092 3095 3097 3099 3101 3103 3105 3107 3109 3112 3115 3117 3119 3121 3124 3126 3127 3128 3128 3128 3130 3132 3135 3136 3138 3139 3142 3142 3143 3143 3144 3147 3150 3153 3157 3162 3167 3171 3175
3083 3083 3083 3084 3085 3087 3088 3089 3091 3094 3097 3098 3100 3102 3104 3108 3111 3112 3114 3117 3118 3120 3123 3125 3125 3124 3125 3126 3129 3129 3127 3134 3137 3139 3140 3140 3140 3143 3145 3148 3153 3160 3165 3169 3173